[[{"header":{"parameterUnit":"m.s-1","parameterCategory":1,"la1":30.2992,"la2":30.254,"lo1":-89.0895,"lo2":-89.0443,"dy":0.0025,"dx":0.0025,"nx":19,"ny":19,"refTime":"2026-05-16T09:00:00:Z","depth":0,"parameterNumber":2,"parameterNumberName":"U-component_of_WINDS"},"data":[0,0,0,-1.9601,-1.9602,-1.9681,-1.9681,-1.9788,-1.9789,0,0,0,0,0,0,0,0,0,0,0,-1.9581,-1.9581,-1.9601,-1.9603,-1.9681,-1.9682,-1.9788,-1.9789,0,0,0,0,0,0,0,0,0,0,0,-1.958,-1.9581,-1.9582,-1.9603,-1.9681,-1.9682,-1.9788,-1.9727,0,0,0,0,0,0,0,0,0,0,-1.9649,-1.9633,-1.9581,-1.9582,-1.9603,-1.9681,-1.9682,-1.9724,-1.9731,-1.9755,0,-1.9777,0,-1.9785,-1.9797,-1.9797,0,0,0,-1.9601,-1.9628,-1.9646,-1.9582,-1.9604,-1.9681,-1.9645,-1.9727,-1.9735,-1.9764,-1.9779,-1.9783,-1.9787,-1.9798,-1.9798,-1.9946,-1.9947,0,0,-1.9596,-1.9597,-1.9641,-1.9651,-1.9638,-1.9643,-1.9648,-1.9732,-1.9748,-1.9779,-1.9785,-1.9789,-1.9798,-1.9799,-1.9945,-1.9946,0,0,0,-1.9585,-1.9594,-1.961,-1.9647,-1.966,-1.9645,-1.9651,-1.9744,-1.975,-1.9786,-1.979,-1.9799,-1.98,-1.9944,-1.9946,-1.9985,0,0,0,-1.9582,-1.9587,-1.9608,-1.9609,-1.9659,-1.9703,-1.9661,-1.9744,-1.9753,-1.9789,-1.9799,-1.9802,-1.9944,-1.9945,-1.9982,-2.0004,0,0,0,-1.9574,-1.9586,-1.9598,-1.9609,-1.9642,-1.9702,-1.9712,-1.9746,-1.9756,-1.9797,-1.9802,-1.9943,-1.9945,-1.9979,-2.0,-2.0044,0,0,0,-1.9566,-1.9633,-1.9599,-1.9675,-1.9642,-1.9725,-1.9711,-1.9773,-1.9814,-1.98,-1.9944,-1.9946,-1.9979,-1.9997,-2.0041,-2.0082,-2.0098,0,0,-1.965,-1.9643,-1.9687,-1.9659,-1.9749,-1.9713,-1.9808,-1.9846,-1.985,-1.9914,-1.9917,-1.9983,-2.0,-2.0043,-2.0189,-2.0202,0,0,0,-1.9714,-1.9746,-1.9769,-1.9808,-1.9837,-1.9864,-1.9886,-1.99,-1.9955,-1.9882,-2.001,-2.002,-2.0046,-2.0065,-2.0077,-2.0099,-1.9954,-1.9954,-1.9954,-1.9835,-1.9835,-1.9909,-1.9919,-1.9956,-1.9978,-2.0009,-2.0031,-2.0022,-2.0052,-2.0072,-2.016,-2.0183,-2.0191,-2.0215,-2.0092,-2.0092,-2.0092,-2.0092,-1.9959,-2.0005,-1.999,-2.0056,-2.0056,-2.0112,-2.0136,-2.0127,-2.018,-2.0145,-2.0168,-2.0131,-2.0206,-2.0226,-2.0095,-2.0095,-2.0094,-2.0094,-2.0094,-2.004,-2.0062,-2.0077,-2.0131,-2.0174,-2.0182,-2.0233,-2.0231,-2.023,-2.0253,-2.0274,-2.0273,-2.0274,-2.0262,-2.0263,-2.0263,-2.0263,-2.0264,-2.0264,-2.0119,-2.0133,-2.0176,-2.0212,-2.0236,-2.0268,-2.029,-2.0314,-2.0341,-2.0336,-2.0336,-2.0324,-2.0212,-2.0185,-2.0269,-2.0268,-2.0267,-2.0267,-2.0266,-2.0248,-2.0218,-2.0284,-2.0308,-2.035,-2.0393,-2.0389,-2.0438,-2.0458,-2.0484,-2.0466,-2.0383,-2.0376,-2.0367,-2.0344,-2.0465,-2.0465,-2.0465,-2.0465,-2.0317,-2.0312,-2.038,-2.0418,-2.0456,-2.0459,-2.0535,-2.0553,-2.0567,-2.0579,-2.0561,-2.053,-2.0521,-2.0519,-2.0507,-2.0486,-2.064,-2.064,-2.064,-2.0397,-2.0396,-2.0461,-2.0472,-2.0505,-2.0533,-2.0605,-2.0651,-2.066,-2.0648,-2.0589,-2.0581,-2.0532,-2.0516,-2.0504,-2.0485,-2.0447,0,0]},{"header":{"parameterUnit":"m.s-1","parameterCategory":1,"la1":30.2992,"la2":30.254,"lo1":-89.0895,"lo2":-89.0443,"dy":0.0025,"dx":0.0025,"nx":19,"ny":19,"refTime":"2026-05-16T09:00:00:Z","depth":0,"parameterNumber":3,"parameterNumberName":"V-component_of_WINDS"},"data":[0,0,0,4.1991,4.1991,4.1994,4.1994,4.2028,4.2028,0,0,0,0,0,0,0,0,0,0,0,4.2009,4.201,4.1991,4.1991,4.1994,4.1994,4.2027,4.2028,0,0,0,0,0,0,0,0,0,0,0,4.2008,4.2009,4.201,4.1991,4.1995,4.1994,4.2027,4.2014,0,0,0,0,0,0,0,0,0,0,4.2006,4.2042,4.2009,4.201,4.1991,4.1995,4.1994,4.2013,4.2015,4.2039,0,4.2066,0,4.2048,4.2032,4.2033,0,0,0,4.1977,4.204,4.2024,4.2011,4.1992,4.1995,4.1989,4.2014,4.2016,4.2042,4.2066,4.2067,4.2049,4.2033,4.2033,4.2219,4.2221,0,0,4.1977,4.2019,4.2022,4.2026,4.2029,4.1989,4.1989,4.2015,4.2044,4.2067,4.2067,4.2049,4.2033,4.2034,4.2218,4.222,0,0,0,4.1986,4.202,4.2002,4.2026,4.2024,4.1989,4.199,4.2043,4.2034,4.2067,4.2049,4.2033,4.2034,4.2216,4.2218,4.2335,0,0,0,4.1985,4.2025,4.2003,4.2029,4.2024,4.2034,4.2018,4.2032,4.2033,4.2049,4.2034,4.2035,4.2214,4.2217,4.2328,4.2383,0,0,0,4.2002,4.2027,4.2034,4.2031,4.2034,4.2033,4.2024,4.2031,4.2024,4.2033,4.2035,4.2213,4.2217,4.2322,4.2372,4.2442,0,0,0,4.2032,4.2139,4.2037,4.2148,4.2035,4.2105,4.2023,4.2074,4.2096,4.2034,4.2214,4.2218,4.232,4.2366,4.2436,4.2508,4.2542,0,0,4.2191,4.216,4.2222,4.213,4.223,4.2101,4.2217,4.2197,4.2159,4.2201,4.2205,4.233,4.2372,4.2441,4.2723,4.2751,0,0,0,4.2286,4.2331,4.2348,4.2371,4.2358,4.235,4.2308,4.23,4.2333,4.219,4.2374,4.2397,4.2436,4.2468,4.2492,4.2521,4.2235,4.2235,4.2235,4.2572,4.2516,4.2614,4.2559,4.2582,4.2536,4.2548,4.2529,4.2468,4.2512,4.2524,4.2702,4.2742,4.2759,4.2791,4.2559,4.2559,4.256,4.256,4.2797,4.2851,4.2765,4.2829,4.277,4.2823,4.2781,4.2736,4.2775,4.2689,4.2721,4.2631,4.2791,4.2816,4.2568,4.2567,4.2566,4.2565,4.2564,4.2976,4.2992,4.298,4.3005,4.303,4.297,4.3012,4.2956,4.2904,4.2935,4.294,4.2938,4.2927,4.2942,4.2942,4.2943,4.2944,4.2944,4.2944,4.3167,4.3149,4.3191,4.3184,4.319,4.319,4.3143,4.3147,4.3137,4.3093,4.3092,4.3025,4.2818,4.2766,4.2954,4.2952,4.2951,4.295,4.2949,4.3413,4.3348,4.3413,4.3419,4.3404,4.3431,4.336,4.3371,4.3366,4.3388,4.3313,4.317,4.3134,4.3115,4.3071,4.3326,4.3326,4.3326,4.3327,4.3563,4.354,4.3591,4.3604,4.3609,4.355,4.3623,4.3586,4.3539,4.3532,4.3487,4.3425,4.3408,4.3382,4.3357,4.3315,4.3627,4.3627,4.3627,4.3711,4.3684,4.3758,4.371,4.3694,4.3681,4.3747,4.3763,4.3695,4.3638,4.3524,4.3511,4.3411,4.3381,4.3322,4.3284,4.3206,0,0]}]]